Simultaneous Nadir Overpasses (SNOs) Predictions

Prediction of SNOs between LANDSAT-8 and NOAA-19 Satellite Orbit:

Table of predicted SNOs for the next 14.0 days since TLE Epoch: 9/15/2017
Index Date (LANDSAT-8) Time (LANDSAT-8) Lat,Lon (LANDSAT-8) SZA (LANDSAT-8 ) Date (NOAA-19) Time (NOAA-19) Lat,Lon (NOAA-19) SZA (NOAA-19 ) Distance(km) Time Diff (sec)
1 09/17/2017 17:02:07 -76.62, 114.75 105.16 09/17/2017 17:01:37 -76.61, 114.62 105.18 3.42 30
2 09/17/2017 17:51:34 76.56, -77.82 74.79 09/17/2017 17:52:32 76.56, -77.87 74.80 1.58 58
3 09/19/2017 22:35:52 76.59,-148.78 75.69 09/19/2017 22:35:18 76.61,-148.72 75.70 2.50 34
4 09/19/2017 23:25:20 -76.57, 18.76 104.33 09/19/2017 23:26:22 -76.55, 18.74 104.33 1.64 62
5 09/22/2017 04:09:38 -76.60, -52.20 103.43 09/22/2017 04:09:08 -76.60, -52.09 103.43 3.10 30
6 09/22/2017 04:59:04 76.58, 115.38 76.56 09/22/2017 05:00:03 76.56, 115.35 76.56 2.11 59
7 09/24/2017 09:43:22 76.61, 44.39 77.46 09/24/2017 09:42:49 76.62, 44.48 77.47 2.91 33
8 09/24/2017 10:32:50 -76.59,-148.05 102.56 09/24/2017 10:33:54 -76.60,-148.18 102.54 3.60 64
9 09/26/2017 15:17:07 -76.61, 140.97 101.67 09/26/2017 15:16:38 -76.61, 141.13 101.66 4.15 29
10 09/26/2017 16:06:33 76.59, -51.47 78.33 09/26/2017 16:07:33 76.58, -51.47 78.33 1.02 60
11 09/28/2017 20:50:50 76.66,-122.31 79.27 09/28/2017 20:50:19 76.65,-122.35 79.25 1.85 31




NCC Satellite Simultaneous Nadir Overpasses (SNOs) Prediction Service
